Location: College Park
(38.9810°N, 76.9370°W)
Time: 22:58:59
(UTC-05:00)

Vanguard 2 Rocket - Visible Passes

Search period start: 18 February 2018 00:00
Search period end: 28 February 2018 00:00
Orbit: 555 x 3327 km, 32.9° (Epoch: 18 February)

Date Brightness Start Highest point End Pass type
(mag) Time Alt. Az. Time Alt. Az. Time Alt. Az.
18 Feb 9.6 02:15:09 60° SE 02:15:09 60° SE 02:30:17 10° ESE visible
18 Feb 9.6 04:20:57 43° WSW 04:28:31 59° SSW 04:45:43 10° SE visible
18 Feb 10.1 06:28:43 10° W 06:44:20 30° SW 06:56:51 10° S visible
18 Feb 9.9 20:31:03 10° S 20:31:07 10° S 20:31:07 10° S visible
18 Feb10.723:13:07E23:13:07E22:36:58SWvisible
19 Feb 10.2 01:18:56 37° ESE 01:18:56 37° ESE 01:28:40 10° E visible
19 Feb 9.4 03:24:43 64° SW 03:26:37 65° SSW 03:45:27 10° ESE visible
19 Feb 9.9 05:30:32 20° W 05:43:35 40° SW 05:58:28 10° SSE visible
19 Feb 10.1 21:41:08 10° SSW 21:41:12 10° SSW 21:41:12 10° SSW visible
20 Feb 10.7 00:22:44 19° E 00:22:44 19° E 00:26:34 10° E visible
20 Feb 9.6 02:28:33 61° SE 02:28:33 61° SE 02:44:31 10° ESE visible
20 Feb 9.7 04:34:21 37° WSW 04:42:20 50° SSW 04:59:13 10° SE visible
20 Feb 9.6 20:43:20 10° S 20:45:27 17° S 20:45:27 17° S visible
20 Feb10.623:26:38E23:26:38E22:51:18WSWvisible
21 Feb 10.1 01:32:27 39° ESE 01:32:27 39° ESE 01:42:58 10° ESE visible
21 Feb 9.5 03:38:15 56° SW 03:40:39 58° SSW 03:59:13 10° SE visible
21 Feb 10.1 05:44:04 15° W 05:56:58 31° SW 06:10:54 10° SSE visible
21 Feb 9.5 19:46:41 10° SSE 19:49:43 15° SE 19:49:43 15° SE visible
21 Feb 9.9 21:54:46 10° SW 21:55:34 13° SW 21:55:34 13° SW visible
22 Feb 10.7 00:36:23 21° E 00:36:23 21° E 00:40:55 10° E visible
22 Feb 9.6 02:42:13 59° SSE 02:42:13 59° SSE 02:58:30 10° ESE visible
22 Feb 9.9 04:48:02 31° WSW 04:55:57 40° SW 05:12:12 10° SSE visible
22 Feb 9.3 20:56:30 10° SSW 20:59:49 24° S 20:59:49 24° S visible
22 Feb10.623:40:25E23:40:25E23:05:40WSWvisible
23 Feb 10.0 01:46:15 40° ESE 01:46:15 40° ESE 01:57:08 10° ESE visible
23 Feb 9.6 03:52:04 47° SW 03:54:30 49° SSW 04:12:35 10° SE visible
23 Feb 10.4 05:57:54 11° W 06:10:16 22° SW 06:22:12 10° S visible
23 Feb 9.1 19:58:55 10° S 20:04:05 24° SSE 20:04:05 24° SSE visible
23 Feb 9.9 22:08:45 10° SW 22:09:55 15° SW 22:09:55 15° SW visible
24 Feb 10.6 00:50:20 21° ESE 00:50:20 21° ESE 00:55:12 10° ESE visible
24 Feb 9.6 02:56:10 53° S 02:56:10 53° S 03:12:10 10° SE visible
24 Feb 10.1 05:02:00 24° WSW 05:09:26 30° SW 05:24:24 10° SSE visible
24 Feb 9.3 19:02:44 10° SSE 19:06:35 14° SE 19:08:18 13° ESE visible
24 Feb 9.0 21:10:11 10° SW 21:14:09 31° SSW 21:14:09 31° SSW visible
24 Feb10.623:54:30E23:54:30E23:19:58WSWvisible
25 Feb 10.1 02:00:20 39° SE 02:00:20 39° SE 02:11:02 10° ESE visible
25 Feb 9.8 04:06:10 38° SW 04:08:14 39° SW 04:25:22 10° SSE visible
25 Feb 10.6 06:16:00 10° WSW 06:23:35 13° SW 06:30:54 10° SSW visible
25 Feb 8.7 20:12:06 10° SSW 20:18:21 34° SSE 20:18:21 34° SSE visible
25 Feb 9.9 22:23:00 10° WSW 22:24:11 16° WSW 22:24:11 16° WSW visible
26 Feb 10.6 01:04:32 21° ESE 01:04:32 21° ESE 01:09:18 10° ESE visible
26 Feb 9.8 03:10:23 44° S 03:10:23 44° S 03:25:23 10° SE visible
26 Feb 10.3 05:16:14 18° WSW 05:22:54 21° SW 05:35:25 10° S visible
26 Feb 8.9 19:14:42 10° S 19:20:00 22° SE 19:22:31 19° ESE visible
26 Feb 8.9 21:24:14 10° SW 21:28:21 35° SW 21:28:21 35° SW visible
27 Feb10.600:08:48ESE00:08:48ESE23:34:11Wvisible
27 Feb 10.1 02:14:39 34° SSE 02:14:39 34° SSE 02:24:35 10° SE visible
27 Feb 10.0 04:20:29 29° SW 04:21:53 29° SW 04:37:19 10° SSE visible
27 Feb 9.2 18:19:28 10° SE 18:21:13 11° SE 18:23:10 10° ESE visible
27 Feb 8.3 20:25:50 10° SW 20:32:29 44° SSE 20:32:29 44° SSE visible
27 Feb 9.9 22:37:23 10° WSW 22:38:18 14° WSW 22:38:18 14° WSW visible
